Weather History for Provo, UT

Change the Weather History Date:

Sunday, July 28, 2013

  Actual Average Record
Temperature  
Mean Temperature 70 °F -  
Max Temperature 80 °F 88 °F 96 °F (1992)
Min Temperature 60 °F 59 °F 53 °F (2005)
Cooling Degree Days 5    
Growing Degree Days 20 (Base 50)    
Moisture  
Dew Point 55 °F    
Average Humidity 67    
Maximum Humidity 82    
Minimum Humidity 42    
Precipitation  
Precipitation 0.00 in - - ()
Sea Level Pressure  
Sea Level Pressure 30.02 in    
Wind  
Wind Speed 6 mph (SE)    
Max Wind Speed 28 mph    
Max Gust Speed 39 mph    
Visibility 12 miles    
Events Rain    
Averages and records for this station are not official NWS values.
T = Trace of Precipitation, MM = Missing Value Source: NWS Daily Summary

Daily Weather History Graph

Daily Weather History Graph

Search for Another Location

Airport:

Trip Planner

Search our weather history database for the weather conditions in past years. The results will help you decide how hot, cold, wet, or windy it might be!

Date:

Astronomy

Jul. 28, 2013 Rise Set
Actual Time 6:21 AM MDT 8:44 PM MDT
Civil Twilight 5:50 AM MDT 9:15 PM MDT
Nautical Twilight 5:12 AM MDT 9:53 PM MDT
Astronomical Twilight 4:30 AM MDT 10:35 PM MDT
Moon No Moon Rise 1:08 PM MDT (7/28)
Length of Visible Light 15h 24m
Length of Day
14h 23m
Waning Gibbous, 60% of the Moon is Illuminated
Jul 28
Waning Gibbous
Jul 29
Last Quarter
Aug 6
New
Aug 14
First Quarter
Aug 20
Full

Hourly Weather History & Observations

Time (MDT) Temp. Heat Index Dew Point Humidity Pressure Visibility Wind Dir Wind Speed Gust Speed Precip Events Conditions
12:15 AM 64.4 °F - 57.2 °F 77% 30.04 in 10.0 mi ENE 4.6 mph - N/A   Clear
12:35 AM 66.2 °F - 57.2 °F 73% 30.04 in 10.0 mi East 5.8 mph - N/A   Clear
12:55 AM 66.2 °F - 57.2 °F 73% 30.03 in 10.0 mi East 5.8 mph - N/A   Clear
1:15 AM 66.2 °F - 57.2 °F 73% 30.03 in 10.0 mi ESE 5.8 mph - N/A   Clear
1:35 AM 66.2 °F - 57.2 °F 73% 30.03 in 10.0 mi East 5.8 mph - N/A   Clear
1:55 AM 64.4 °F - 57.2 °F 77% 30.03 in 10.0 mi East 3.5 mph - N/A   Clear
2:15 AM 62.6 °F - 57.2 °F 82% 30.03 in 10.0 mi East 3.5 mph - N/A   Clear
2:35 AM 64.4 °F - 57.2 °F 77% 30.02 in 10.0 mi ESE 3.5 mph - N/A   Clear
2:55 AM 64.4 °F - 57.2 °F 77% 30.02 in 10.0 mi Calm Calm - N/A   Clear
3:15 AM 62.6 °F - 57.2 °F 82% 30.02 in 10.0 mi SSE 4.6 mph - N/A   Clear
3:35 AM 60.8 °F - 55.4 °F 82% 30.01 in 10.0 mi SSE 8.1 mph - N/A   Clear
3:55 AM 60.8 °F - 55.4 °F 82% 30.01 in 10.0 mi ESE 3.5 mph - N/A   Clear
4:15 AM 60.8 °F - 55.4 °F 82% 30.02 in 10.0 mi Calm Calm - N/A   Clear
4:35 AM 60.8 °F - 55.4 °F 82% 30.01 in 10.0 mi Calm Calm - N/A   Clear
4:55 AM 60.8 °F - 53.6 °F 77% 30.02 in 10.0 mi SSE 5.8 mph - N/A   Clear
5:15 AM 60.8 °F - 55.4 °F 82% 30.02 in 10.0 mi South 6.9 mph - N/A   Clear
5:35 AM 60.8 °F - 55.4 °F 82% 30.02 in 10.0 mi SE 11.5 mph - N/A   Clear
5:55 AM 62.6 °F - 55.4 °F 77% 30.02 in 10.0 mi ESE 8.1 mph - N/A   Clear
6:15 AM 60.8 °F - 55.4 °F 82% 30.03 in 10.0 mi ESE 8.1 mph - N/A   Clear
6:35 AM 60.8 °F - 55.4 °F 82% 30.03 in 10.0 mi SE 5.8 mph - N/A   Clear
6:55 AM 62.6 °F - 55.4 °F 77% 30.04 in 15.0 mi ESE 5.8 mph - N/A   Scattered Clouds
7:55 AM 62.6 °F - 55.4 °F 77% 30.04 in 15.0 mi East 4.6 mph - N/A   Scattered Clouds
8:47 AM 69.8 °F - 55.4 °F 60% 30.04 in 15.0 mi Calm Calm - N/A   Partly Cloudy
9:47 AM 71.6 °F - 55.4 °F 57% 30.04 in 15.0 mi SSW 4.6 mph - N/A   Partly Cloudy
10:56 AM 75.2 °F - 55.4 °F 50% 30.04 in 15.0 mi Calm Calm - N/A   Partly Cloudy
11:55 AM 78.8 °F - 55.4 °F 44% 30.02 in 15.0 mi ESE 5.8 mph - N/A   Scattered Clouds
12:47 PM 77.0 °F - 53.6 °F 44% 30.02 in 15.0 mi Calm Calm - N/A   Mostly Cloudy
1:49 PM 77.0 °F - 55.4 °F 47% 30.00 in 15.0 mi Calm Calm - N/A   Mostly Cloudy
2:55 PM 73.4 °F - 57.2 °F 57% 29.98 in 15.0 mi WSW 9.2 mph - N/A   Mostly Cloudy
3:50 PM 80.6 °F 80.5 °F 55.4 °F 42% 29.94 in 15.0 mi Variable 5.8 mph - N/A   Mostly Cloudy
6:50 PM 73.4 °F - 53.6 °F 50% 29.94 in 15.0 mi SE 27.6 mph 39.1 mph N/A Rain Light Rain
7:50 PM 71.6 °F - 51.8 °F 50% 29.96 in 15.0 mi SSE 16.1 mph - N/A   Mostly Cloudy
8:50 PM 69.8 °F - 48.2 °F 46% 29.98 in 15.0 mi SSE 11.5 mph - N/A   Mostly Cloudy
9:15 PM 71.6 °F - 50.0 °F 46% 30.01 in 10.0 mi WNW 17.3 mph 20.7 mph N/A   Clear
9:35 PM 71.6 °F - 53.6 °F 53% 30.03 in 10.0 mi North 12.7 mph - N/A   Mostly Cloudy
9:55 PM 71.6 °F - 53.6 °F 53% 30.03 in 10.0 mi NE 5.8 mph - N/A   Scattered Clouds
10:15 PM 69.8 °F - 51.8 °F 53% 30.01 in 10.0 mi ENE 5.8 mph - N/A   Scattered Clouds
10:35 PM 69.8 °F - 51.8 °F 53% 30.03 in 10.0 mi South 10.4 mph - N/A   Partly Cloudy